Regional Weather Roundup
Issued by NWS

Home | Current Version | Previous Version | Text Only | Print | Product List | Glossary Off
Versions: 1 2 3 4 5 6 7 8 9 10 11 12 13 14 15 16 17 18 19 20 21 22 23 24 25 26 27 28 29 30 31 32 33 34 35 36 37 38 39 40 41 42 43 44 45 46 47 48 49 50

000
ASUS43 KOAX 200302
RWRNE

WEATHER ROUNDUP FOR NEBRASKA
NATIONAL WEATHER SERVICE OMAHA NE
1000 PM CDT SAT APR 19 2014

NOTES: SATELLITE DATA IS BEING USED TO AUGMENT CLOUD COVER ABOVE
       12000 FEET.
       "FAIR" INDICATES FEW OR NO CLOUDS BELOW 12,000 FEET WITH NO
       SIGNIFICANT WEATHER AND/OR OBSTRUCTIONS TO VISIBILITY.

  * THESE STATIONS DO NOT REPORT WEATHER SUCH AS RAIN...SNOW OR FOG.

NEZ001>004-019>022-054>056-200400-
NEBRASKA PANHANDLE

CITY           SKY/WX    TMP DP  RH WIND       PRES   REMARKS
SCOTTSBLUFF    CLEAR     55  34  45 SE10      30.02R
ALLIANCE       PTCLDY    49  32  52 SE3       30.02R
CHADRON        CLEAR     50  35  56 CALM      29.99R
KIMBALL        PTCLDY    48  34  58 S5        30.05R
SIDNEY         PTCLDY    49  34  56 CALM      30.05R
$$

NEZ057>060-069>072-079>082-200400-
SOUTHWEST NEBRASKA

CITY           SKY/WX    TMP DP  RH WIND       PRES   REMARKS
NORTH PLATTE   CLOUDY    57  43  59 NE8       30.00S
IMPERIAL       PTCLDY    52  41  66 N8        30.01R
LEXINGTON      MOCLDY    57  49  74 N7        29.98R
MCCOOK         MOCLDY    59  48  67 N12       29.98R
OGALLALA       CLOUDY    59  40  50 E9        30.00F
$$

NEZ005>010-023>029-035>040-094-200400-
NORTH CENTRAL NEBRASKA

CITY           SKY/WX    TMP DP  RH WIND       PRES   REMARKS
VALENTINE      PTCLDY    52  13  21 E5        30.03R
AINSWORTH      MOCLDY    53  28  38 NE6       30.03S
BROKEN BOW     MOCLDY    59  43  55 NE9       30.00R
O`NEILL        CLOUDY    58  35  41 NE7       30.02S
ORD            MOCLDY    57  47  69 NW8       29.98R
THEDFORD       MOCLDY    59  36  42 E5        30.03S
$$

NEZ041-046>049-061>064-073>077-083>087-200400-
SOUTH CENTRAL NEBRASKA

CITY           SKY/WX    TMP DP  RH WIND       PRES   REMARKS
GRAND ISLAND   PTCLDY    64  50  60 NE6       29.94S
AURORA         CLEAR     68  50  53 SE9       29.95R
HASTINGS       PTCLDY    65  48  54 CALM      29.94R
HEBRON         PTCLDY    67  48  49 SE9       29.97R
HOLDREGE       CLOUDY    61  49  64 N9        29.97R
KEARNEY *      MOCLDY    61  48  63 N8        29.97R
YORK           PTCLDY    68  48  49 SE12      29.96R
$$

NEZ011>018-030>034-042>045-200400-
NORTHEAST NEBRASKA

CITY           SKY/WX    TMP DP  RH WIND       PRES   REMARKS
NORFOLK        MOCLDY    63  48  58 CALM      29.99R
ALBION         CLOUDY    63  47  56 NE9       29.99R
BLAIR          CLOUDY    71  42  35 S18G24    29.99R
COLUMBUS *     MOCLDY    66  48  52 NE3       29.98R
FREMONT        CLOUDY    72  43  35 SE10      29.98R
TEKAMAH        CLOUDY    73  44  35 S16       29.97R
$$

NEZ050>053-065>068-078-088>093-200400-
SOUTHEAST NEBRASKA

CITY           SKY/WX    TMP DP  RH WIND       PRES   REMARKS
LINCOLN        PTCLDY    72  44  36 S16       29.98R
OMAHA EPPLEY   CLOUDY    72  43  35 S20       29.99R
BEATRICE       PTCLDY    69  44  40 SE12G17   29.99R
FALLS CITY     PTCLDY    61  46  57 SE10      30.04R
NEBRASKA CITY  PTCLDY    67  43  41 S16       30.02R
PLATTSMOUTH    CLOUDY    71  39  32 SE15G21   30.01R
$$

NEZ044-045-051>053-067-200400-
OMAHA AREA

CITY           SKY/WX    TMP DP  RH WIND       PRES   REMARKS
OMAHA EPPLEY   CLOUDY    72  43  35 S20       29.99R
BLAIR          CLOUDY    71  42  35 S18G24    29.99R
FREMONT        CLOUDY    72  43  35 SE10      29.98R
MILLARD        CLOUDY    71  44  37 S12       30.00R
OFFUTT AFB     CLOUDY    71  45  39 SE15      30.00R
PLATTSMOUTH    CLOUDY    71  39  32 SE15G21   30.01R
WAHOO          CLOUDY    68  45  43 SE7       29.98R
$$



USA.gov is the U.S. government's official web portal to all federal, state and local government web resources and services.